This demonstration page uses our WeatherBlox Daily Observations layout. Learn more.

Left ArrowRight Arrow

38.88101, -77.10428

Hourly Observations for May 14, 2015

Temp ( °F °C ) Dew Point ( °F °C ) Humidity (%) Winds ( mph kmh ) Pressure ( in mb ) Visibility ( mi km ) Precip ( " mm )
12:52 am 00:52 Mostly Clear 56 13.3 40 4.4 55 55 NNW 15 24 30.35 1028 10 16 0.00 0.00
1:52 am 01:52 Clear 55 12.8 41 5 59 59 NNW 9 15 30.36 1028 10 16 0.00 0.00
2:52 am 02:52 Clear 55 12.8 41 5 59 59 NNW 10 17 30.37 1028 10 16 0.00 0.00
3:52 am 03:52 Clear 54 12.2 41 5 62 62 NNW 9 15 30.39 1029 10 16 0.00 0.00
4:52 am 04:52 Mostly Clear 54 12.2 41 5 62 62 N 12 19 30.40 1029 10 16 0.00 0.00
5:52 am 05:52 Partly Cloudy 54 12.2 38 3.3 55 55 N 12 19 30.40 1030 10 16 0.00 0.00
6:52 am 06:52 Mostly Cloudy 54 12.2 38 3.3 55 55 N 8 13 30.42 1030 10 16 0.00 0.00
7:52 am 07:52 Cloudy 57 13.9 38 3.3 49 49 NNE 12 19 30.44 1031 10 16 0.00 0.00
8:52 am 08:52 Cloudy 60 15.6 39 3.9 46 46 NNE 10 17 30.45 1031 10 16 0.00 0.00
9:52 am 09:52 Cloudy 62 16.7 39 3.9 43 43 NE 7 11 30.45 1031 10 16 0.00 0.00
10:52 am 10:52 Cloudy 65 18.3 39 3.9 39 39 NE 6 9 30.46 1032 10 16 0.00 0.00
11:52 am 11:52 Mostly Cloudy 65 18.3 35 1.7 33 33 Calm 30.46 1032 10 16 0.00 0.00
12:52 pm 12:52 Partly Cloudy 68 20 37 2.8 32 32 NNW 6 9 30.43 1030 10 16 0.00 0.00
1:52 pm 13:52 Partly Cloudy 71 21.7 37 2.8 29 29 NNW 6 9 30.40 1030 10 16 0.00 0.00
2:52 pm 14:52 Partly Cloudy 72 22.2 37 2.8 28 28 Calm 30.38 1029 10 16 0.00 0.00
3:52 pm 15:52 Mostly Cloudy 71 21.7 37 2.8 29 29 Calm 30.36 1028 10 16 0.00 0.00
4:52 pm 16:52 Mostly Cloudy 71 21.7 38 3.3 30 30 Calm 30.34 1027 10 16 0.00 0.00
5:52 pm 17:52 Mostly Cloudy 70 21.1 38 3.3 31 31 S 5 7 30.33 1027 10 16 0.00 0.00
6:52 pm 18:52 Mostly Cloudy 69 20.6 40 4.4 35 35 S 5 7 30.32 1027 10 16 0.00 0.00
7:52 pm 19:52 Mostly Cloudy 67 19.4 41 5 39 39 SE 12 19 30.33 1027 10 16 0.00 0.00
8:52 pm 20:52 Mostly Cloudy 65 18.3 42 5.6 43 43 SSE 8 13 30.33 1027 10 16 0.00 0.00
9:52 pm 21:52 Mostly Cloudy 63 17.2 44 6.7 50 50 S 8 13 30.34 1027 10 16 0.00 0.00
10:52 pm 22:52 Mostly Cloudy 63 17.2 44 6.7 50 50 S 10 17 30.35 1028 10 16 0.00 0.00
11:52 pm 23:52 Mostly Cloudy 61 16.1 44 6.7 54 54 SSW 7 11 30.34 1028 10 16 0.00 0.00

Powered by AerisWeather